When you browse on this site, cookies collect data to enhance your experience and personalize the content and advertising you see.
Visit our Privacy Policy to learn more. By continuing to use the site, you agree to this use of cookies and data.
  • En España
  • Lista de países
  • Para 7 días
  • Temperatura del agua
  • El tiempo en el mapa
  • Informadores
  • user-avatar
    Iniciar sesión

    Tiempo cada hora Barcelona

    Hoy, 21 Febrero, Viernes

    Tiempo Temperatura Precipitaciones Viento Presión Humedad
    00:00 +13°C° 0 mm 1 mps 767 mmHg 60%
    01:00 +12°C° 0 mm 1 mps 767 mmHg 60%
    02:00 +12°C° 0 mm 1 mps 767 mmHg 60%
    03:00 +12°C° 0 mm 1 mps 767 mmHg 60%
    04:00 +12°C° 0 mm 1 mps 767 mmHg 60%
    05:00 +12°C° 0 mm 1 mps 767 mmHg 59%
    06:00 +11°C° 0 mm 1 mps 768 mmHg 59%
    13:00 +19°C° 0 mm 5 mps 768 mmHg 36%
    14:00 +19°C° 0 mm 5 mps 767 mmHg 36%
    15:00 +19°C° 0 mm 6 mps 767 mmHg 36%
    16:00 +17°C° 0 mm 5 mps 767 mmHg 41%
    17:00 +16°C° 0 mm 5 mps 767 mmHg 46%
    18:00 +15°C° 0 mm 5 mps 767 mmHg 51%
    19:00 +14°C° 0 mm 4 mps 767 mmHg 54%
    20:00 +14°C° 0 mm 4 mps 768 mmHg 57%
    21:00 +13°C° 0 mm 4 mps 768 mmHg 60%
    22:00 +13°C° 0 mm 3 mps 768 mmHg 61%
    23:00 +12°C° 0 mm 3 mps 768 mmHg 62%

    Mañana, 22 Febrero, Sábado

    Tiempo Temperatura Precipitaciones Viento Presión Humedad
    00:00 +12°C° 0 mm 3 mps 768 mmHg 63%
    01:00 +13°C° 0 mm 2 mps 768 mmHg 63%
    02:00 +12°C° 0 mm 2 mps 768 mmHg 64%
    03:00 +12°C° 0 mm 1 mps 768 mmHg 64%
    04:00 +12°C° 0 mm 2 mps 768 mmHg 64%
    05:00 +12°C° 0 mm 2 mps 768 mmHg 64%
    06:00 +10°C° 0 mm 2 mps 768 mmHg 65%
    07:00 +12°C° 0 mm 2 mps 769 mmHg 63%
    08:00 +13°C° 0 mm 2 mps 769 mmHg 61%
    09:00 +14°C° 0 mm 2 mps 769 mmHg 60%
    10:00 +15°C° 0 mm 2 mps 770 mmHg 60%
    11:00 +16°C° 0 mm 3 mps 770 mmHg 60%
    12:00 +17°C° 0 mm 3 mps 770 mmHg 60%
    13:00 +17°C° 0 mm 3 mps 770 mmHg 60%
    14:00 +17°C° 0 mm 3 mps 770 mmHg 60%
    15:00 +17°C° 0 mm 3 mps 770 mmHg 60%
    16:00 +16°C° 0 mm 2 mps 770 mmHg 64%
    17:00 +15°C° 0 mm 1 mps 770 mmHg 69%
    18:00 +14°C° 0 mm 1 mps 770 mmHg 74%
    19:00 +14°C° 0 mm 1 mps 771 mmHg 75%
    20:00 +13°C° 0 mm 0 mps 771 mmHg 76%
    21:00 +12°C° 0 mm 0 mps 771 mmHg 78%
    22:00 +12°C° 0 mm 0 mps 771 mmHg 78%
    23:00 +13°C° 0 mm 1 mps 771 mmHg 79%

    Pasado mañana, 23 Febrero, Domingo

    Tiempo Temperatura Precipitaciones Viento Presión Humedad
    00:00 +13°C° 0 mm 1 mps 771 mmHg 79%
    01:00 +13°C° 0 mm 1 mps 771 mmHg 79%
    02:00 +12°C° 0 mm 2 mps 771 mmHg 78%
    03:00 +12°C° 0 mm 2 mps 770 mmHg 77%
    04:00 +12°C° 0 mm 2 mps 770 mmHg 76%
    05:00 +12°C° 0 mm 2 mps 770 mmHg 74%
    06:00 +12°C° 0 mm 2 mps 770 mmHg 72%
    07:00 +13°C° 0 mm 2 mps 770 mmHg 66%
    08:00 +14°C° 0 mm 2 mps 770 mmHg 60%
    09:00 +14°C° 0 mm 3 mps 770 mmHg 54%
    10:00 +17°C° 0 mm 3 mps 770 mmHg 49%
    11:00 +19°C° 0 mm 3 mps 770 mmHg 43%
    12:00 +21°C° 0 mm 4 mps 770 mmHg 38%
    13:00 +21°C° 0 mm 4 mps 769 mmHg 37%
    14:00 +21°C° 0 mm 4 mps 769 mmHg 37%
    15:00 +22°C° 0 mm 5 mps 768 mmHg 37%
    16:00 +21°C° 0 mm 5 mps 768 mmHg 42%
    17:00 +19°C° 0 mm 5 mps 768 mmHg 46%
    18:00 +18°C° 0 mm 4 mps 768 mmHg 51%
    19:00 +17°C° 0 mm 4 mps 769 mmHg 53%
    20:00 +17°C° 0 mm 4 mps 769 mmHg 55%
    21:00 +16°C° 0 mm 3 mps 769 mmHg 57%
    22:00 +16°C° 0 mm 3 mps 769 mmHg 57%
    23:00 +14°C° 0 mm 3 mps 769 mmHg 57%

    24 Febrero, Lunes

    Tiempo Temperatura Precipitaciones Viento Presión Humedad
    00:00 +14°C° 0 mm 3 mps 769 mmHg 57%
    01:00 +14°C° 0 mm 3 mps 768 mmHg 56%
    02:00 +13°C° 0 mm 3 mps 768 mmHg 56%
    03:00 +14°C° 0 mm 2 mps 767 mmHg 55%
    04:00 +14°C° 0 mm 2 mps 767 mmHg 54%
    05:00 +14°C° 0 mm 2 mps 767 mmHg 53%
    06:00 +14°C° 0 mm 2 mps 767 mmHg 52%
    07:00 +15°C° 0 mm 2 mps 767 mmHg 48%
    08:00 +16°C° 0 mm 2 mps 766 mmHg 44%
    09:00 +17°C° 0 mm 2 mps 766 mmHg 40%
    10:00 +19°C° 0 mm 3 mps 766 mmHg 36%
    11:00 +21°C° 0 mm 3 mps 765 mmHg 32%
    12:00 +22°C° 0 mm 4 mps 765 mmHg 28%
    13:00 +22°C° 0 mm 4 mps 764 mmHg 29%
    14:00 +22°C° 0 mm 5 mps 763 mmHg 30%
    15:00 +23°C° 0 mm 6 mps 763 mmHg 31%
    16:00 +21°C° 0 mm 5 mps 763 mmHg 36%
    17:00 +20°C° 0 mm 5 mps 762 mmHg 41%
    18:00 +18°C° 0 mm 4 mps 762 mmHg 46%
    19:00 +18°C° 0 mm 4 mps 762 mmHg 47%
    20:00 +17°C° 0 mm 4 mps 762 mmHg 49%
    21:00 +15°C° 0 mm 4 mps 762 mmHg 50%
    22:00 +15°C° 0 mm 4 mps 762 mmHg 51%
    23:00 +14°C° 0 mm 3 mps 762 mmHg 51%

    25 Febrero, Martes

    Tiempo Temperatura Precipitaciones Viento Presión Humedad
    00:00 +14°C° 0 mm 3 mps 762 mmHg 52%
    01:00 +14°C° 0 mm 2 mps 762 mmHg 52%
    02:00 +14°C° 0 mm 2 mps 761 mmHg 53%
    03:00 +14°C° 0 mm 1 mps 761 mmHg 53%
    04:00 +14°C° 0 mm 1 mps 761 mmHg 53%
    05:00 +13°C° 0 mm 1 mps 761 mmHg 53%
    06:00 +13°C° 0 mm 1 mps 761 mmHg 53%
    07:00 +14°C° 0 mm 1 mps 761 mmHg 50%
    08:00 +15°C° 0 mm 1 mps 761 mmHg 47%
    09:00 +16°C° 0 mm 1 mps 761 mmHg 45%
    10:00 +17°C° 0 mm 2 mps 761 mmHg 42%
    11:00 +19°C° 0 mm 2 mps 761 mmHg 39%
    12:00 +20°C° 0 mm 2 mps 761 mmHg 36%
    13:00 +20°C° 0 mm 2 mps 761 mmHg 37%
    14:00 +20°C° 0 mm 3 mps 760 mmHg 39%
    15:00 +20°C° 0 mm 3 mps 760 mmHg 40%
    16:00 +19°C° 0 mm 3 mps 760 mmHg 46%
    17:00 +17°C° 0 mm 2 mps 760 mmHg 51%
    18:00 +16°C° 0 mm 2 mps 761 mmHg 56%
    19:00 +16°C° 0 mm 2 mps 761 mmHg 59%
    20:00 +15°C° 0 mm 2 mps 761 mmHg 62%
    21:00 +14°C° 0 mm 3 mps 762 mmHg 65%
    22:00 +13°C° 0 mm 3 mps 762 mmHg 66%
    23:00 +13°C° 0 mm 3 mps 762 mmHg 68%

    26 Febrero, Miércoles

    Tiempo Temperatura Precipitaciones Viento Presión Humedad
    00:00 +13°C° 0 mm 4 mps 762 mmHg 69%
    01:00 +12°C° 0 mm 3 mps 762 mmHg 68%
    02:00 +12°C° 0 mm 3 mps 762 mmHg 68%
    03:00 +12°C° 0 mm 3 mps 762 mmHg 67%
    04:00 +12°C° 0 mm 3 mps 762 mmHg 68%
    05:00 +12°C° 0 mm 3 mps 762 mmHg 70%
    06:00 +12°C° 0 mm 3 mps 762 mmHg 71%
    07:00 +12°C° 0 mm 3 mps 763 mmHg 70%
    08:00 +13°C° 0 mm 2 mps 763 mmHg 69%
    09:00 +14°C° 0 mm 2 mps 763 mmHg 68%
    10:00 +14°C° 0 mm 2 mps 763 mmHg 67%
    11:00 +14°C° 0 mm 3 mps 762 mmHg 66%
    12:00 +14°C° 0 mm 3 mps 762 mmHg 65%
    13:00 +14°C° 0.1 mm 3 mps 761 mmHg 66%
    14:00 +14°C° 0.1 mm 4 mps 761 mmHg 66%
    15:00 +15°C° 0.1 mm 4 mps 760 mmHg 67%
    16:00 +14°C° 0.1 mm 3 mps 760 mmHg 68%
    17:00 +14°C° 0.1 mm 3 mps 760 mmHg 69%
    18:00 +14°C° 0.1 mm 2 mps 760 mmHg 70%
    19:00 +13°C° 0 mm 3 mps 761 mmHg 73%
    20:00 +12°C° 0 mm 3 mps 761 mmHg 76%
    21:00 +12°C° 0 mm 3 mps 761 mmHg 79%
    22:00 +12°C° 0 mm 3 mps 761 mmHg 79%
    23:00 +11°C° 0 mm 3 mps 761 mmHg 79%
    Mostrar más